{"data":{"norad_id":57245,"intl_designator":"2023-094AD","name":"STARLINK-5587","alt_names":[],"object_type":"PAYLOAD","status":"ACTIVE","operator":null,"country":"US","launch_date":"2023-07-07","launch_site_code":"AFWTR","launch_vehicle":null,"mission":null,"orbit_class":"UNKNOWN","rcs_meters":null,"size_class":null,"mass_kg":null,"dimensions":null,"purposes":["comms"],"wikipedia_slug":null,"has_3d_model":false,"image_url":null,"decayed_at":null,"tle_current":{"epoch":"2026-05-25T04:09:44.479872Z","epoch_age_seconds":57309,"freshness":"FRESH","line1":"1 57245U 23094AD  26145.17343148 -.00000011  00000+0  91351-5 0  9996","line2":"2 57245  43.0046 308.2515 0001623 284.9983  75.0689 15.27574186158938","mean_motion":15.27574186,"eccentricity":0.0001623,"inclination_deg":43.0046,"raan_deg":308.2515,"arg_perigee_deg":284.9983,"mean_anomaly_deg":75.0689,"bstar":9.1351e-6,"rev_number":15893,"period_min":94.267107496146,"perigee_km":481.95293197353,"apogee_km":484.18007863136,"semimajor_km":6861.2035053024,"source":"CELESTRAK","updated_at":"2026-05-25T13:38:18.257699Z"}}}